User: anonymous   Login
Location: Unspecified
(0.0000°N, 0.0000°E)
Time: 07:20:10
(UTC+02:00)
Language:

Cosmos 2263 Rocket - Orbit

View from above orbital plane
View from above orbital plane
View from above satellite
View from above satellite

Ground track
Ground track

The orbit data is extracted from the following two-line orbital elements,

1 22803U 93059B   15144.80604172  .00000187  00000-0  11725-3 0  9999
2 22803 070.9916 039.0258 0015072 095.3133 264.9710 14.16714518121433
Epoch (UTC): 24 May 2015 19:20:42
Eccentricity: 0.0015072
inclination: 70.9916°
perigee height: 825 km
apogee height: 847 km
right ascension of ascending node: 39.0258°
argument of perigee: 95.3133°
revolutions per day: 14.16714518
mean anomaly at epoch: 264.9710°
orbit number at epoch: 12143

The dashed part of the orbit path shows where the satellite is in the earth's shadow,  

DLR